User: anonymous   Login
Location: Unspecified
(0.0000°N, 0.0000°E)
Time: 04:57:03
(UTC+00:00)
Language:

AO-109 - Orbit

View from above orbital plane
View from above orbital plane
View from above satellite
View from above satellite

Ground track
Ground track

The orbit data is extracted from the following two-line orbital elements,

1 47311U 21002C   24057.54759983  .00162225  00000-0  12433-2 0  9992
2 47311  60.6691 143.6819 0025155  66.5304 293.8446 15.70865424173728
Epoch (UTC): 26 February 2024 13:08:32
Eccentricity: 0.0025155
inclination: 60.6691°
perigee height: 339 km
apogee height: 373 km
right ascension of ascending node: 143.6819°
argument of perigee: 66.5304°
revolutions per day: 15.70865424
mean anomaly at epoch: 293.8446°
orbit number at epoch: 17372

The dashed part of the orbit path shows where the satellite is in the earth's shadow,  

DLR